Weather History for KCEC - December, 2013

Change the Weather History Date:

Thursday, December 12, 2013

  Actual Average Record
Temperature  
Mean Temperature 43 °F 47 °F  
Max Temperature 53 °F 54 °F 68 °F (1988)
Min Temperature 33 °F 41 °F 29 °F (1964)
Degree Days  
Heating Degree Days 22 18  
Month to date heating degree days 281 210  
Since 1 July heating degree days 1873 1827  
Cooling Degree Days 0 0  
Month to date cooling degree days 0 0  
Year to date cooling degree days 4 0  
Moisture  
Dew Point 38 °F    
Average Humidity 73    
Maximum Humidity 92    
Minimum Humidity 54    
Precipitation  
Precipitation 0.02 in 0.33 in 2.07 in (1956)
Month to date precipitation 1.27 3.58  
Year to date precipitation 28.88 56.34  
Since 1 July precipitation 8.95 19.41  
Snow  
Snow 0.00 in - - ()
Month to date snowfall 0.0  
Since 1 July snowfall 0.0  
Snow Depth 0.00 in    
Sea Level Pressure  
Sea Level Pressure 30.24 in    
Wind  
Wind Speed 6 mph (SE)    
Max Wind Speed 13 mph    
Max Gust Speed 16 mph    
Visibility 10 miles    
Events Rain    
T = Trace of Precipitation, MM = Missing Value Source: NWS Daily Summary

Daily Weather History Graph

Daily Weather History Graph

Search for Another Location

Airport or City:

Trip Planner

Search our weather history database for the weather conditions in past years. The results will help you decide how hot, cold, wet, or windy it might be!

Date:

Astronomy

Dec. 12, 2013 Rise Set
Actual Time 7:35 AM PST 4:46 PM PST
Civil Twilight 7:03 AM PST 5:17 PM PST
Nautical Twilight 6:28 AM PST 5:52 PM PST
Astronomical Twilight 5:54 AM PST 6:26 PM PST
Moon 1:59 PM PST (12/12) 3:00 AM PST (12/12)
Length of Visible Light 10h 14m
Length of Day
9h 11m
Waxing Gibbous, 81% of the Moon is Illuminated
Dec 12
Waxing Gibbous
Dec 17
Full
Dec 25
Last Quarter
Jan 1
New
Jan 7
First Quarter

Hourly Weather History & Observations

Time (PST) Temp. Windchill Dew Point Humidity Pressure Visibility Wind Dir Wind Speed Gust Speed Precip Events Conditions
12:56 AM 37.0 °F 32.4 °F 32.0 °F 82% 30.20 in 10.0 mi East 5.8 mph - N/A   Clear
1:56 AM 37.0 °F 33.3 °F 30.9 °F 79% 30.21 in 10.0 mi ESE 4.6 mph - N/A   Clear
2:56 AM 35.1 °F - 30.0 °F 82% 30.24 in 10.0 mi Calm Calm - N/A   Clear
3:56 AM 35.1 °F 30.1 °F 30.0 °F 82% 30.24 in 10.0 mi ESE 5.8 mph - N/A   Clear
4:56 AM 37.0 °F 34.5 °F 30.9 °F 79% 30.25 in 10.0 mi ENE 3.5 mph - N/A   Clear
5:56 AM 37.0 °F 31.6 °F 30.9 °F 79% 30.22 in 10.0 mi East 6.9 mph - N/A   Clear
6:56 AM 36.0 °F 33.3 °F 30.9 °F 82% 30.22 in 10.0 mi East 3.5 mph - N/A   Clear
7:56 AM 36.0 °F 33.3 °F 30.0 °F 79% 30.24 in 10.0 mi NE 3.5 mph - N/A   Clear
8:56 AM 42.1 °F 38.4 °F 33.1 °F 70% 30.25 in 10.0 mi ESE 5.8 mph - N/A   Clear
9:56 AM 48.9 °F - 36.0 °F 61% 30.24 in 10.0 mi SSE 8.1 mph - N/A   Clear
10:56 AM 52.0 °F - 35.1 °F 53% 30.24 in 10.0 mi SSE 10.4 mph - N/A   Clear
11:56 AM 51.1 °F - 37.0 °F 59% 30.24 in 10.0 mi South 9.2 mph - N/A   Clear
12:56 PM 50.0 °F - 42.1 °F 74% 30.23 in 10.0 mi SSW 9.2 mph - N/A   Clear
1:20 PM 50.0 °F - 44.1 °F 80% 30.23 in 10.0 mi SW 5.8 mph - N/A   Partly Cloudy
1:56 PM 50.0 °F - 45.0 °F 83% 30.23 in 10.0 mi South 4.6 mph - N/A   Clear
2:14 PM 50.0 °F - 45.0 °F 83% 30.22 in 10.0 mi SSE 4.6 mph - N/A   Mostly Cloudy
2:44 PM 50.0 °F - 44.1 °F 80% 30.21 in 10.0 mi SE 6.9 mph - N/A   Scattered Clouds
2:56 PM 50.0 °F - 43.0 °F 77% 30.22 in 10.0 mi SSE 9.2 mph - N/A   Partly Cloudy
3:56 PM 48.0 °F - 41.0 °F 77% 30.22 in 10.0 mi South 6.9 mph - N/A   Clear
4:56 PM 48.0 °F - 43.0 °F 83% 30.24 in 10.0 mi SSE 6.9 mph - N/A   Partly Cloudy
5:56 PM 48.0 °F - 44.1 °F 86% 30.23 in 10.0 mi SSE 11.5 mph - N/A   Overcast
6:56 PM 48.0 °F - 44.1 °F 86% 30.24 in 10.0 mi SE 8.1 mph - N/A   Overcast
7:56 PM 46.9 °F - 43.0 °F 86% 30.25 in 10.0 mi SE 6.9 mph - 0.01 in   Overcast
8:56 PM 46.9 °F - 42.1 °F 83% 30.26 in 10.0 mi SE 9.2 mph - 0.01 in Rain Light Rain
9:56 PM 46.0 °F 43.9 °F 43.0 °F 89% 30.27 in 10.0 mi ENE 4.6 mph - 0.00 in   Overcast
10:56 PM 45.0 °F 42.6 °F 42.1 °F 90% 30.27 in 10.0 mi East 4.6 mph - N/A   Overcast
11:56 PM 45.0 °F - 42.1 °F 90% 30.27 in 10.0 mi Calm Calm - N/A   Overcast